Welcome to the New NWS' Forecast!
Most changes are behind the scenes, but click here for differences you might notice.
Latest weather observations around

Tuscaloosa Regional Airport (KTCL)

Using English Units (Switch to International System of Units)
Date/ Time (CDT) Wind (mph) Vis. (mi) Weather Sky Cond. Temp (°F) Rel. Humidity Wind Chill (°F) Heat Index (°F) Pressure Precip. (in)
Air Dwpt 6 hour Altimeter (inHg) Sea level (inHg) 1 hr 3 hr 6 hr
Max Min
Oct 23 12:53 N 7 10 Clear CLR 71 50     47%   70 30.2 30.2      
Oct 23 11:53 NE 8 10 Clear CLR 69 50     51%     30.23 30.22      
Oct 23 10:53 NE 3 10 Clear CLR 66 51     59%     30.25 30.24      
Oct 23 09:53 Calm 10 Clear CLR 60 50     69%     30.25 30.24      
Oct 23 08:53 N 3 10 Mostly Clear FEW002 56 49     77%     30.24 30.24      
Oct 23 07:53 N 3 10 Clear CLR 52 48     86%     30.22 30.22      
Oct 23 06:53 Calm 10 Clear CLR 50 47     89%     30.21 30.21      
Oct 23 05:53 Calm 10 Clear CLR 52 47     83%     30.2 30.2      
Oct 23 04:53 Calm 10 Clear CLR 51 48     89%     30.2 30.19      
Oct 23 03:53 N 5 10 Clear CLR 52 47     83%     30.2 30.19      
Oct 23 02:53 N 3 10 Clear CLR 53 48     83%     30.2 30.2      
Oct 23 01:53 NNE 5 10 Clear CLR 53 48     83%     30.2 30.19      
Oct 23 00:53 N 3 10 Clear CLR 53 48     83%     30.2 30.19      
Oct 22 23:53 Calm 10 Clear CLR 53 49     86%     30.21 30.2      
Oct 22 22:53 Calm 10 Clear CLR 54 49     83%     30.21 30.21      
Oct 22 21:53 Calm 10 Clear CLR 55 49     80%     30.22 30.21      
Oct 22 20:53 Calm 10 Clear CLR 57 49     74%     30.21 30.2      
Oct 22 19:53 Calm 10 Clear CLR 57 49     74%     30.2 30.19      
Oct 22 18:53 Calm 10 Clear CLR 60 47     62%     30.19 30.19      
Oct 22 17:53 ESE 5 10 Clear CLR 66 44     45%     30.19 30.19      
Oct 22 16:53 E 3 10 Clear CLR 70 44     39%     30.18 30.18      
Oct 22 15:53 ENE 3 10 Clear CLR 71 42     35%   70 30.19 30.19      
Oct 22 14:53 Calm 10 Clear CLR 72 41     33%   70 30.2 30.19      
Oct 22 13:53 NE 8 10 Clear CLR 72 41     33%   70 30.21 30.21      
Oct 22 12:53   10 Clear CLR 70 40     33%     30.24 30.24      
Oct 22 11:53 SE 6 10 Clear CLR 68 43     40%     30.27 30.27      
Oct 22 10:53 E 6 10 Clear   63 42     46%     30.3 30.29      
Oct 22 09:53 E 5 10 Clear CLR 58 40     51%     30.31 30.3      
Oct 22 08:53 NNE 3 10 Clear CLR 50 42     74%     30.3 30.3      
Oct 22 07:53 NNE 5 10 Clear CLR 42 37     82% 39   30.29 30.29      
Oct 22 06:53 NNE 3 10 Clear CLR 39 35     86% 37   30.28 30.28      
Oct 22 05:53 Calm 10 Clear CLR 39 36     89%     30.26 30.26      
Oct 22 04:53 Calm 10 Clear CLR 39 36     89%     30.25 30.24      
Oct 22 03:53 Calm 10 Clear CLR 40 37     89%     30.24 30.23      
Oct 22 02:53 Calm 10 Clear CLR 41 37     86%     30.24 30.23      
Oct 22 01:53 Calm 10 Clear CLR 41 38     89%     30.24 30.24      
Oct 22 00:53 Calm 10 Clear CLR 42 38     85%     30.24 30.24      
Oct 21 23:53 NNE 3 10 Clear CLR 43 38     82% 41   30.25 30.25      
Oct 21 22:53 Calm 10 Clear CLR 44 39     82%     30.27 30.26      
Oct 21 21:53 Calm 10 Clear CLR 45 40     82%     30.26 30.25      
Oct 21 20:53 Calm 10 Clear CLR 47 39     74%     30.25 30.24      
Oct 21 19:53 NE 3 10 Clear CLR 49 38     66% 48   30.25 30.24      
Oct 21 18:53 Calm 10 Clear CLR 51 39     63%     30.24 30.24      
Oct 21 17:53 N 8 10 Clear CLR 60 34     37%     30.24 30.23      
Oct 21 16:53 NNE 9 10 Clear CLR 64 32     30%     30.23 30.23      
Oct 21 15:53 NE 10 10 Clear CLR 65 33     30%     30.24 30.23      
Oct 21 14:53 NNE 10 10 Clear CLR 64 32     30%     30.24 30.24      
Oct 21 13:53 NNE 11 10 Clear CLR 64 31     29%     30.27 30.27      
Oct 21 12:53 NNE 14 10 Clear CLR 61 31     32%     30.3 30.3      
Oct 21 11:53 ENE 10 10 Clear CLR 58 31     36%     30.33 30.33      
Oct 21 10:53 NE 14 10 Clear CLR 55 30     38%     30.34 30.34      
Oct 21 09:53 NE 9 10 Clear CLR 53 31     43%     30.34 30.33      
Oct 21 08:53 NNE 10 10 Clear CLR 49 30     48% 45   30.33 30.33      
Oct 21 07:53 NNE 13 10 Clear CLR 46 31     55% 40   30.31 30.3      
Oct 21 06:53 N 10 10 Clear CLR 46 32     58% 41   30.28 30.27      
Oct 21 05:53 NNE 11 10 Clear CLR 47 36     65% 42   30.25 30.24      
Oct 21 04:53 N 9 10 Clear CLR 49 38     66% 45   30.23 30.22      
Oct 21 03:53 N 6 10 Clear CLR 50 43     77%     30.21 30.21      
Oct 21 02:53 N 7 10 Clear CLR 50 46     86%     30.2 30.19      
Oct 21 01:53 N 3 7 Clear CLR 50 47     89%     30.18 30.18      
Oct 21 01:18 Calm 3 Fog/Mist FEW002 50 48     93%     30.17        
Oct 21 01:16 Calm 1.25 Fog/Mist FEW002 50 47     89%     30.18        
Oct 21 01:03 Calm 0.25 Fog VV002 49 47     93%     30.18        
Oct 21 00:53 Calm 0.75 Fog/Mist VV002 50 48     93%     30.18 30.17      
Oct 21 00:51 Calm 1.5 Fog/Mist FEW002 50 48     94%     30.18        
Oct 21 00:45 Calm 3 Fog/Mist CLR 50 47     89%     30.18        
Oct 21 00:39 Calm 1.5 Fog/Mist CLR 50 47     89%     30.17        
Oct 21 00:26 Calm 0.5 Fog VV002 51 48     89%     30.18        
Oct 21 00:15 Calm 1 Fog/Mist VV002 51 48     89%     30.18        
Oct 21 00:00 Calm 0.25 Fog VV002 51 49     92%     30.18        
Oct 20 23:53 Calm 0.5 Fog CLR 51 49     92%     30.19 30.18      
Oct 20 23:18 Calm 0.5 Fog CLR 51 49     92%     30.19        
Oct 20 23:16 Calm 0.25 Fog VV002 51 49     92%     30.19        
Oct 20 23:03 Calm 0.5 Fog VV002 52 50     93%     30.19        
Oct 20 22:56 Calm 1 Fog/Mist VV002 53 50     89%     30.19        
Oct 20 22:53 Calm 2.5 Fog/Mist FEW002 53 51     93%     30.19 30.19      
Oct 20 22:39 Calm 2.5 Fog/Mist FEW002 53 50     89%     30.19        
Oct 20 21:53 Calm 7 Clear CLR 54 52     93%     30.18 30.18      
Oct 20 20:53 Calm 8 Clear CLR 57 54     89%     30.16 30.15      
Oct 20 19:53 NW 3 10 Clear CLR 58 55     90%     30.15 30.14      
Oct 20 18:53 Calm 10 Clear CLR 59 56     90%     30.11 30.11     0
Oct 20 17:53 WNW 3 10 Partly Cloudy SCT023 63 56     78%     30.09 30.09      
Oct 20 16:53 N 8 10 Cloudy OVC019 64 56     75%     30.09 30.08      
Oct 20 16:09 NW 7 10 Cloudy BKN017 OVC021 64 58     81%     30.08        
Oct 20 15:53 NNW 6 10 Cloudy BKN014 OVC020 64 58     81%     30.07 30.07   0  
Oct 20 15:08 NW 6 10 Cloudy SCT008 OVC014 64 59     84%     30.07        
Oct 20 15:00 NW 7 10 Cloudy BKN008 OVC012 63 59     87%     30.07        
Oct 20 14:53 WNW 10 10 Cloudy SCT008 OVC011 64 59     84%     30.07 30.06      
Oct 20 13:53 NW 8 10 Cloudy OVC012 65 60     84%     30.07 30.07 0    
Oct 20 13:33 NW 6 10 Cloudy BKN010 OVC014 65 60     84%     30.08   0    
Oct 20 13:04 WNW 5 10 Cloudy BKN009 BKN080 OVC095 65 61     87%     30.09   0    
Oct 20 12:53 W 7 10 Light Rain SCT009 OVC090 65 61     87%     30.09 30.09 0   0
Oct 20 12:46 Calm 10 Light Rain FEW007 OVC090 65 60     84%     30.08   0    
Oct 20 11:53 NW 6 7 Light Rain SCT018 BKN049 OVC080 65 59     81%     30.11 30.1 0    
Oct 20 11:51 NW 7 7 Light Rain SCT018 BKN049 OVC075 64 59     83%     30.11   0    
Oct 20 11:10 NNW 6 10 Cloudy BKN018 OVC034 67 58     73%     30.13        
Oct 20 10:53 NW 7 10 Cloudy FEW016 OVC032 67 59     76%     30.12 30.11      
Oct 20 10:48 NW 7 10 Cloudy FEW016 OVC030 66 59     78%     30.12        
Oct 20 09:53 N 7 10 Cloudy OVC025 68 59     73%     30.11 30.1   0  
Oct 20 08:53 N 6 10 Cloudy BKN025 OVC033 64 58     81%     30.1 30.09 0    
Oct 20 08:41 N 7 10 Light Rain BKN025 OVC033 64 58     81%     30.1   0    
Oct 20 08:35 N 7 2.5 Light Rain FEW027 OVC033 64 58     81%     30.1   0    
Oct 20 07:53 N 7 10 Light Rain FEW032 BKN070 OVC090 66 57     73%     30.07 30.06 0    
Oct 20 06:53 N 7 10 Cloudy FEW036 BKN070 OVC090 67 60     79%     30.05 30.05 0   0
Oct 20 05:53 Calm 10 Cloudy OVC035 68 64     87%     30.04 30.03      
Oct 20 04:53 Calm 10 Mostly Cloudy SCT043 BKN055 BKN070 67 64     90%     30.02 30.01      
Oct 20 03:53 Calm 10 Partly Cloudy SCT048 SCT110 67 64     90%     30.03 30.02      
Oct 20 02:53 Calm 10 Mostly Clear FEW055 FEW110 67 64     90%     30.05 30.04      
Oct 20 01:53 Calm 10 Mostly Cloudy BKN100 67 64     90%     30.07 30.06      
Oct 20 00:53 Calm 10 Partly Cloudy FEW075 SCT090 67 64     90%     30.09 30.08      
Oct 19 23:53 NW 3 10 Clear CLR 67 64     90%     30.1 30.09      
Oct 19 22:53 Calm 10 Mostly Clear FEW090 67 64     90%     30.11 30.11      
Oct 19 21:53 Calm 10 Mostly Clear FEW080 FEW110 69 64     84%     30.12 30.11      
Oct 19 20:53 Calm 10 Mostly Clear FEW100 70 63     78%     30.12 30.11      
Oct 19 19:53 Calm 10 Mostly Clear FEW070 72 63     73%   72 30.12 30.11      
Oct 19 18:53 Calm 10 Clear CLR 73 63     71%   73 30.11 30.11      
Oct 19 17:53 Calm 10 Clear CLR 76 63     64%   76 30.11 30.1      
Oct 19 16:53 WNW 3 10 Clear CLR 81 60     49%   82 30.11 30.11      
Oct 19 15:53 WSW 6 10 Clear CLR 82 59     46%   82 30.12 30.11      
Oct 19 14:53 S 8 10 Clear CLR 83 60     46%   83 30.14 30.13      
Oct 19 13:53 S 6 10 Clear CLR 82 63     53%   83 30.17 30.16      
Oct 19 12:53 3 10 Clear CLR 79 62     56%   79 30.2 30.2      
Oct 19 11:53 S 6 10 Clear CLR 77 62     60%   77 30.24 30.23      
Oct 19 10:53 S 8 10 Clear CLR 74 61     64%   74 30.26 30.26      
Oct 19 09:53 SE 6 10 Clear CLR 70 58     66%     30.27 30.26      
Oct 19 08:53 Calm 10 Clear CLR 64 55     73%     30.27 30.27      
Oct 19 07:53 Calm 10 Clear CLR 57 52     83%     30.26 30.25      
Oct 19 06:53 Calm 10 Clear CLR 53 50     89%     30.25 30.25      
Oct 19 05:53 Calm 10 Clear CLR 53 50     89%     30.26 30.25      
Oct 19 04:53 N 3 10 Clear CLR 54 50     86%     30.26 30.25      
Oct 19 03:53 Calm 10 Clear CLR 53 49     86%     30.26 30.25      
Oct 19 02:53 Calm 10 Clear   53 49     86%     30.27 30.27      
Oct 19 01:53 Calm 10 Clear CLR 54 49     83%     30.28 30.27      
Oct 19 00:53 Calm 10 Clear CLR 54 49     83%     30.29 30.28      
Oct 18 23:53 Calm 10 Clear CLR 55 49     80%     30.3 30.29      
Oct 18 22:53 Calm 10 Clear CLR 55 50     83%     30.31 30.31      
May 14 13:53 NE 6 10 Clear CLR 94 61     34%   94 30 29.99      
May 13 19:53 Calm 10 Clear CLR 80 69     69%   83 30.01 30.01      
May 12 07:48 Calm 2 Clear   70 63     78%     30.17        
May 11 23:53 Calm 9 Clear CLR 66 65     96%     30.08 30.07      
Jun 11 13:53 7 10 Mostly Clear FEW050 90 67     47%   93 30.1 30.09      
Jun 11 12:53 SE 7 10 Mostly Clear FEW048 88 67     50%   91 30.11 30.1      
Jun 10 23:53 NNE 3 10 Clear CLR 71 66     84%   72 30.07 30.06 0    
Jun 10 11:53 3 10 Partly Cloudy SCT080 86 60     42%   86 30.07 30.06      
Jun 10 09:53 6 10 Clear CLR 81 62     53%   82 30.07 30.06      
Jun 09 15:53 SW 7 10 Clear CLR 82 58     44%   82 29.94 29.93      
Jun 09 01:53 Calm 8 Clear CLR 61 59     93%     29.92 29.91      
Jun 08 10:53 N 8 10 Clear CLR 76 59     56%   76 29.94 29.93      
Jun 06 03:53 NE 3 10 Cloudy OVC007 72 70     93%   73 29.77 29.76      
Jun 05 21:43 NE 5 10 Cloudy BKN009 OVC023 72 71     97%   73 29.8   0